Regional Weather Roundup
Issued by NWS

Home | Current Version | Previous Version | Text Only | Print | Product List | Glossary On
Versions: 1 2 3 4 5 6 7 8 9 10 11 12 13 14 15 16 17 18 19 20 21 22 23 24 25 26 27 28 29 30 31 32 33 34 35 36 37 38 39 40 41 42 43 44 45 46 47 48 49 50
000
ASUS45 KABQ 280010
RWRNM
WEATHER ROUNDUP FOR NEW MEXICO
NATIONAL WEATHER SERVICE ALBUQUERQUE NM
500 PM MST THU NOV 27 2014

NOTE: "FAIR" MEANS FEW OR NO CLOUDS BELOW 12,000 FEET AGL WITH NO
       SIGNIFICANT WEATHER OR OBSTRUCTIONS TO VISION.

      THIS PRODUCT IS RELEASED AS TWO VERSIONS.  ONE VERSION NEAR
      THE TOP OF THE HOUR CONTAINING PRELIMINARY DATA FROM ALBUQUERQUE
      AND OTHER STATIONS.  A FINAL VERSION WITH ADDITIONAL DATA IS
      ISSUED ABOUT 10 MINUTES AFTER THE HOUR.

NMZ501-503-504-510>518-280100-
NORTHWEST PLATEAU/NORTHCENTRAL MOUNTAINS

CITY           SKY/WX    TMP DP  RH WIND       PRES   REMARKS
FARMINGTON     CLEAR     51  20  29 CALM      30.34S
6HR MIN TEMP:  44; 6HR MAX TEMP:  57;

LOS ALAMOS     CLEAR     51  22  31 S6        30.39S
SANTA FE       CLEAR     50  20  30 SW7       30.35R
6HR MIN TEMP:  49; 6HR MAX TEMP:  59;

TAOS           CLEAR     48  23  37 CALM      30.37S
ANGEL FIRE     FAIR      35  19  54 W9        30.41R WCI  27

$$
NMZ402-403-502-505>509-280100-
WESTCENTRAL MOUNTAINS/SOUTHWEST MOUNTAINS

CITY           SKY/WX    TMP DP  RH WIND       PRES   REMARKS
GALLUP         CLEAR     55   8  15 CALM      30.36S
6HR MIN TEMP:  45; 6HR MAX TEMP:  63;

GRANTS         CLEAR     46   9  21 CALM      30.37S
SILVER CITY    CLEAR     59  19  21 SE6       30.35S

$$
NMZ407-409-411-412-280100-
SOUTHERN DESERTS

CITY           SKY/WX    TMP DP  RH WIND       PRES   REMARKS
LORDSBURG      FAIR      63  23  22 SE7       30.28S
DEMING         CLEAR     63  23  21 SE3       30.30S
6HR MIN TEMP:  62; 6HR MAX TEMP:  68;

LAS CRUCES     CLEAR     62  22  21 S3        30.32S
HOLLOMAN AFB   PTCLDY    62  24  23 NW5       30.29F
ALAMOGORDO     CLEAR     61  23  23 S3        30.31S
T OR C         CLEAR     62  21  20 S5        30.31S
6HR MIN TEMP:  56; 6HR MAX TEMP:  65;


$$
NMZ519>523-280100-
CENTRAL VALLEYS/CENTRAL HIGHLANDS

CITY           SKY/WX    TMP DP  RH WIND       PRES   REMARKS
ALBUQUERQUE    PTCLDY    57  21  24 S3        30.33F
6HR MIN TEMP:  47; 6HR MAX TEMP:  61;

DOUBLE EAGLE   PTCLDY    52  19  28 S7        30.35S
MORIARTY ARPT  FAIR      51  21  30 N5        30.35S
6HR MIN TEMP:  50; 6HR MAX TEMP:  65;

CLINES CORNERS CLEAR     47  20  34 NW9       30.35S
6HR MIN TEMP:  47; 6HR MAX TEMP:  60;

BELEN          FAIR      55  20  25 E3        30.33S
6HR MIN TEMP:  52; 6HR MAX TEMP:  61;

SOCORRO        FAIR      59  21  23 CALM      30.32S
6HR MIN TEMP:  53; 6HR MAX TEMP:  63;


$$
NMZ524>526-539-540-280100-
SOUTHCENTRAL MOUNTAINS

CITY           SKY/WX    TMP DP  RH WIND       PRES   REMARKS
RUIDOSO        CLEAR     52  19  28 NW8       30.39S

$$
NMZ527>531-280100-
NORTHEAST HIGHLANDS/NORTHEAST PLAINS

CITY           SKY/WX    TMP DP  RH WIND       PRES   REMARKS
LAS VEGAS      CLEAR     57  12  17 S3        30.31R
6HR MIN TEMP:  57; 6HR MAX TEMP:  67;

RATON          PTCLDY    46  23  40 NW8       30.25R
6HR MIN TEMP:  46; 6HR MAX TEMP:  59;

CLAYTON        PTCLDY    51  27  39 SW10      30.20R
6HR MIN TEMP:  50; 6HR MAX TEMP:  68;


$$
NMZ532>537-280100-
EASTCENTRAL PLAINS

CITY           SKY/WX    TMP DP  RH WIND       PRES   REMARKS
TUCUMCARI      PTCLDY    57  26  30 SW12      30.20S
6HR MIN TEMP:  56; 6HR MAX TEMP:  65;

CANNON AFB     CLEAR     54  26  34 SW9       30.26S
6HR MIN TEMP:  54; 6HR MAX TEMP:  64;

CLOVIS AIRPORT CLEAR     54  25  32 S10       30.25S

$$
NMZ028-029-538-280100-
SOUTHEAST PLAINS

CITY           SKY/WX    TMP DP  RH WIND       PRES   REMARKS
ROSWELL        CLEAR     54  30  40 S7        30.27F
6HR MIN TEMP:  52; 6HR MAX TEMP:  62;

CARLSBAD       CLEAR     55  32  41 S8        30.28S
6HR MIN TEMP:  52; 6HR MAX TEMP:  62;

HOBBS          CLEAR     54  28  37 SE8       30.31S


$$


USA.gov is the U.S. government's official web portal to all federal, state and local government web resources and services.